| time (UTC) | temp C | wind direction | speed KPH | gust KPH | rain 1hr cm | rain 24hr cm | rain mn cm | humidity % | barometer mb |
| 20260504081512 | 3 | 244 | 0.0 | 3.2 | 0.00 | 0.00 | 0.00 | 78 | 1012.7 |
| 20260504044554 | 5 | 244 | 0.0 | 3.2 | 0.00 | 0.00 | 0.00 | 79 | 1012.9 |
| 20260504043053 | 5 | 244 | 0.0 | 3.2 | 0.00 | 0.00 | 0.00 | 79 | 1012.9 |
| 20260504041546 | 5 | 244 | 0.0 | 3.2 | 0.00 | 0.00 | 0.00 | 78 | 1012.8 |
| 20260504040050 | 6 | 244 | 0.0 | 0.0 | 0.00 | 0.00 | 0.00 | 79 | 1012.9 |
| 20260504034544 | 6 | 244 | 0.0 | 3.2 | 0.00 | 0.00 | 0.00 | 77 | 1012.9 |
| 20260504033044 | 6 | 244 | 0.0 | 3.2 | 0.00 | 0.00 | 0.00 | 76 | 1012.9 |
| 20260504031546 | 6 | 244 | 0.0 | 1.6 | 0.00 | 0.00 | 0.00 | 74 | 1012.9 |
| 20260504030042 | 7 | 244 | 0.0 | 1.6 | 0.00 | 0.00 | 0.00 | 73 | 1012.9 |
| 20260504024556 | 7 | 244 | 0.0 | 0.0 | 0.00 | 0.00 | 0.00 | 72 | 1013.0 |
| 20260504023042 | 7 | 244 | 0.0 | 1.6 | 0.00 | 0.00 | 0.00 | 71 | 1013.1 |
| 20260504021542 | 7 | 244 | 0.0 | 1.6 | 0.00 | 0.00 | 0.00 | 71 | 1013.2 |
| 20260504020043 | 7 | 244 | 1.6 | 3.2 | 0.00 | 0.00 | 0.00 | 70 | 1013.2 |
| 20260504014540 | 8 | 244 | 0.0 | 3.2 | 0.00 | 0.00 | 0.00 | 69 | 1013.1 |
| 20260504013040 | 8 | 244 | 1.6 | 3.2 | 0.00 | 0.00 | 0.00 | 66 | 1012.9 |
| 20260504011539 | 8 | 244 | 3.2 | 4.8 | 0.00 | 0.00 | 0.00 | 63 | 1012.8 |
| 20260504010038 | 9 | 244 | 1.6 | 4.8 | 0.00 | 0.00 | 0.00 | 64 | 1012.6 |
| 20260504004546 | 10 | 244 | 1.6 | 4.8 | 0.00 | 0.00 | 0.00 | 59 | 1012.5 |
| 20260504003137 | 10 | 244 | 1.6 | 4.8 | 0.00 | 0.00 | 0.00 | 58 | 1012.4 |
| 20260504001542 | 10 | 186 | 0.0 | 3.2 | 0.00 | 0.00 | 0.00 | 59 | 1012.1 |
| 20260504000054 | 10 | 186 | 0.0 | 3.2 | 0.00 | 0.00 | 0.00 | 58 | 1012.0 |
| 20260503234547 | 11 | 186 | 0.0 | 8.0 | 0.00 | 0.00 | 0.00 | 50 | 1011.9 |
| 20260503233035 | 12 | 158 | 3.2 | 9.7 | 0.00 | 0.00 | 0.00 | 45 | 1011.7 |
| 20260503231533 | 12 | 228 | 0.0 | 3.2 | 0.00 | 0.00 | 0.00 | 51 | 1011.8 |
| 20260503230038 | 12 | 231 | 1.6 | 4.8 | 0.00 | 0.00 | 0.00 | 46 | 1011.9 |
| 20260503224532 | 12 | 158 | 0.0 | 4.8 | 0.00 | 0.00 | 0.00 | 45 | 1011.8 |
| 20260503223038 | 12 | 355 | 0.0 | 3.2 | 0.00 | 0.00 | 0.00 | 48 | 1012.0 |
| 20260503221537 | 12 | 34 | 0.0 | 4.8 | 0.00 | 0.00 | 0.00 | 45 | 1012.0 |
| 20260503220029 | 12 | 199 | 3.2 | 4.8 | 0.00 | 0.00 | 0.00 | 43 | 1012.1 |
| 20260503214528 | 13 | 270 | 1.6 | 12.9 | 0.00 | 0.00 | 0.00 | 44 | 1012.2 |
| 20260503213028 | 13 | 172 | 1.6 | 9.7 | 0.00 | 0.00 | 0.00 | 44 | 1012.2 |
| 20260503211525 | 12 | 33 | 3.2 | 20.9 | 0.00 | 0.00 | 0.00 | 44 | 1012.1 |
| 20260503210025 | 13 | 129 | 1.6 | 19.3 | 0.00 | 0.00 | 0.00 | 45 | 1012.3 |
| 20260503204623 | 12 | 349 | 6.4 | 22.5 | 0.00 | 0.00 | 0.00 | 45 | 1012.5 |
| 20260503203035 | 12 | 71 | 4.8 | 17.7 | 0.00 | 0.00 | 0.00 | 44 | 1012.4 |
| 20260503201522 | 12 | 223 | 4.8 | 14.5 | 0.00 | 0.00 | 0.00 | 41 | 1012.4 |
| 20260503200022 | 12 | 39 | 4.8 | 22.5 | 0.00 | 0.00 | 0.00 | 39 | 1012.2 |
| 20260503194520 | 12 | 133 | 3.2 | 12.9 | 0.00 | 0.00 | 0.00 | 38 | 1012.4 |
| 20260503193019 | 13 | 198 | 1.6 | 11.3 | 0.00 | 0.00 | 0.00 | 40 | 1012.6 |
| 20260503191517 | 13 | 349 | 3.2 | 16.1 | 0.00 | 0.00 | 0.00 | 36 | 1012.6 |
| 20260503190017 | 12 | 151 | 4.8 | 19.3 | 0.00 | 0.00 | 0.00 | 36 | 1012.7 |
| 20260503184515 | 13 | 206 | 6.4 | 17.7 | 0.00 | 0.00 | 0.00 | 35 | 1012.8 |
| 20260503183012 | 12 | 195 | 8.0 | 17.7 | 0.00 | 0.00 | 0.00 | 37 | 1013.0 |
| 20260503181514 | 12 | 234 | 8.0 | 20.9 | 0.00 | 0.00 | 0.00 | 36 | 1013.3 |
| 20260503180016 | 11 | 355 | 6.4 | 17.7 | 0.00 | 0.00 | 0.00 | 38 | 1013.5 |
| 20260503174513 | 11 | 82 | 6.4 | 17.7 | 0.00 | 0.00 | 0.00 | 39 | 1013.6 |
| 20260503173008 | 11 | 355 | 6.4 | 19.3 | 0.00 | 0.00 | 0.00 | 41 | 1014.0 |
| 20260503171502 | 11 | 173 | 3.2 | 16.1 | 0.00 | 0.00 | 0.00 | 40 | 1014.3 |